Погода в Туманяне

Армения     41°00′07″N   44°38′57″E
темп.,
°C
ветер,
м/с
пор.,
м/с
влажн.,
%
обл.,
%
осадки,
мм/ч
давл.,
гПа
погр.,
м
16 мая, вс
вс1601:00+10юз228510 0.0 101713
04:00+9ююз11815 0.0 101713
07:00+11юз117810 0.0 101641
10:00+17св21530 0.0 1014866
13:00+19св325369 0.1 10131419
16:00+19св325970 0.4 10121155
19:00+14всв228791 1.9 1013216
22:00+11юз1192100 3.6 101513
17 мая, пн
пн1701:00+9ююз229090 0.0 101516
04:00+9ююз2184100 0.0 101414
07:00+11ююз11810 0.0 101332
10:00+18св115535 0.0 1011596
13:00+22св2348100 0.0 10091068
16:00+18вюв5769100 1.1 1008925
19:00+13в2288100 1.0 101156
22:00+10зюз11916 1.1 101211
18 мая, вт
вт1801:00+9юз229799 0.3 101124
04:00+9юз11911 0.4 101019
07:00+10ююз22795 0.0 101037
10:00+17ссз12525 0.0 1009787
13:00+19св054280 0.5 10092197
16:00+16с346772 2.3 1010642
19:00+15ссв128368 1.6 101284
22:00+10ююз218387 1.8 101413
19 мая, ср
ср1901:00+9ююз22855 0.0 101520
04:00+8ююз22825 0.0 101522
07:00+10юз22760 0.0 101643
10:00+19зсз12460 0.0 1014669
13:00+22зсз363933 0.0 10132476
16:00+19ссв23625 0.0 1014446
19:00+17всв22735 0.2 1015129
22:00+12ю228861 0.2 101718
20 мая, чт
чт2001:00+11ююз22865 0.0 101813
04:00+10ююз21860 0.0 101815
07:00+13юв11806 0.0 101843
10:00+18св22611 0.0 1017830
13:00+21св335810 0.1 10161220
16:00+20св326412 0.9 1015907
19:00+18всв227814 0.1 1015441
22:00+13юв229314 0.5 101720